[[{"header":{"parameterUnit":"m.s-1","parameterCategory":1,"la1":30.2991,"la2":30.254,"lo1":-89.0895,"lo2":-89.0444,"dy":0.0017,"dx":0.0017,"nx":28,"ny":28,"refTime":"2024-05-30T21:00:00:Z","depth":0,"parameterNumber":2,"parameterNumberName":"U-component_of_WINDS"},"data":[0,0,0,0,0,0,0,0,0,0,0,0,0,0,0,0,0,0,0,0,0,0,0,0,0,0,0,0,0,0,0,0,0,0,0,0,0,0,0,0,0,0,0,0,0,0,0,0,0,0,0,0,0,0,0,0,0,0,-4.765,-4.765,0,-4.7684,-4.7685,-4.7685,-4.7585,-4.7582,-4.7579,-4.7576,-4.7609,-4.7612,-4.7616,0,0,0,0,0,0,0,0,0,0,0,0,0,-4.7498,-4.7501,-4.765,-4.7651,-4.7651,-4.7684,-4.7685,-4.7685,-4.7585,-4.7582,-4.7578,-4.7574,-4.7608,-4.7612,-4.7616,0,0,0,0,0,0,0,0,0,0,0,0,0,-4.7551,-4.7502,-4.765,-4.7605,-4.7602,-4.7684,-4.7685,-4.7685,-4.7586,-4.7582,-4.7577,-4.7573,-4.7606,-4.7612,-4.7617,-4.7744,0,0,-4.7634,-4.7637,0,0,0,0,0,0,0,0,-4.7548,-4.7557,-4.7611,-4.7609,-4.7605,-4.7626,-4.7643,-4.7705,-4.7587,-4.7592,-4.7576,-4.757,-4.7618,-4.7622,-4.7639,-4.7745,-4.7746,-4.7635,-4.7638,-4.764,-4.7642,0,0,0,0,0,0,0,-4.7544,-4.7555,-4.7663,-4.7612,-4.7608,-4.7583,-4.7586,-4.7654,-4.763,-4.7591,-4.7584,-4.759,-4.7615,-4.7634,-4.7639,-4.7747,-4.7634,-4.7639,-4.7643,-4.7645,-4.7959,-4.7963,0,0,0,0,0,0,-4.7547,-4.7552,-4.7662,-4.7664,-4.7565,-4.759,-4.7592,-4.7623,-4.7629,-4.7626,-4.7594,-4.7585,-4.7626,-4.7632,-4.764,-4.7786,-4.764,-4.7646,-4.7649,-4.7954,-4.796,-4.7965,0,0,0,0,0,0,-4.7544,-4.7558,-4.7661,-4.7606,-4.7618,-4.7597,-4.7633,-4.7627,-4.7645,-4.7631,-4.7626,-4.7617,-4.7623,-4.7632,-4.7718,-4.7786,-4.7648,-4.7653,-4.7948,-4.7955,-4.7962,-4.8083,0,0,0,0,0,0,-4.754,-4.7557,-4.7605,-4.7608,-4.7621,-4.774,-4.7637,-4.7631,-4.7655,-4.7644,-4.7651,-4.7648,-4.762,-4.7711,-4.7724,-4.7792,-4.7658,-4.7941,-4.7951,-4.796,-4.8073,-4.8093,-4.8111,0,0,0,0,0,-4.7535,-4.7637,-4.7608,-4.7622,-4.7681,-4.7744,-4.7751,-4.7717,-4.7661,-4.7708,-4.77,-4.7648,-4.7778,-4.772,-4.7735,-4.7805,-4.7937,-4.7948,-4.7959,-4.8064,-4.8089,-4.8111,0,0,0,0,0,0,-4.7641,-4.7637,-4.7604,-4.7711,-4.7729,-4.7727,-4.7786,-4.7745,-4.7779,-4.7767,-4.7723,-4.7725,-4.782,-4.7822,-4.7758,-4.7928,-4.7848,-4.7862,-4.7922,-4.7946,-4.7965,-4.7961,-4.7662,0,0,0,0,0,-4.7677,-4.773,-4.7723,-4.7818,-4.7829,-4.7806,-4.7833,-4.7805,-4.7821,-4.7828,-4.7826,-4.7843,-4.7888,-4.7918,-4.7958,-4.8074,-4.8073,-4.813,-4.8149,-4.8165,-4.8177,-4.8237,-4.8261,-4.8002,-4.8002,-4.8001,0,0,-4.7751,-4.7756,-4.7791,-4.7839,-4.785,-4.7904,-4.7813,-4.7874,-4.7914,-4.7837,-4.7918,-4.7918,-4.7935,-4.8037,-4.8081,-4.804,-4.8249,-4.8179,-4.8192,-4.8195,-4.8251,-4.8276,-4.8298,-4.8009,-4.8008,-4.8007,0,0,-4.7914,-4.7924,-4.8003,-4.8016,-4.8034,-4.8019,-4.8038,-4.8044,-4.804,-4.8122,-4.8065,-4.8112,-4.819,-4.8204,-4.8222,-4.8393,-4.8346,-4.8408,-4.8507,-4.8567,-4.8587,-4.8605,-4.8664,-4.8686,-4.8421,-4.8421,-4.8421,0,-4.8003,-4.8084,-4.8049,-4.8114,-4.8136,-4.8072,-4.8151,-4.8166,-4.8196,-4.8212,-4.8167,-4.8264,-4.8271,-4.8374,-4.8417,-4.8434,-4.8453,-4.8404,-4.8587,-4.8605,-4.8621,-4.8676,-4.8699,-4.8428,-4.8427,-4.8426,-4.8426,0,-4.8192,-4.8249,-4.8311,-4.8342,-4.8372,-4.8445,-4.842,-4.8455,-4.8426,-4.8416,-4.85,-4.8507,-4.8547,-4.857,-4.8542,-4.867,-4.8644,-4.8595,-4.8512,-4.8653,-4.8705,-4.8726,-4.8438,-4.8436,-4.8434,-4.8432,0,0,-4.8418,-4.8431,-4.8454,-4.8468,-4.8484,-4.8527,-4.8597,-4.8638,-4.8667,-4.8692,-4.8748,-4.8817,-4.8771,-4.8791,-4.8765,-4.8818,-4.8951,-4.8761,-4.876,-4.8793,-4.909,-4.9125,-4.915,-4.8922,-4.8926,-4.8929,-4.9088,0,-4.8576,-4.8695,-4.8667,-4.8785,-4.8837,-4.8778,-4.8839,-4.8855,-4.8849,-4.8891,-4.8884,-4.8933,-4.887,-4.8881,-4.8931,-4.8924,-4.9009,-4.8913,-4.8972,-4.8974,-4.8965,-4.9178,-4.9214,-4.9364,-4.9108,-4.9111,-4.9114,0,-4.8775,-4.8807,-4.8931,-4.8939,-4.896,-4.9015,-4.905,-4.9092,-4.911,-4.9102,-4.9126,-4.909,-4.9159,-4.908,-4.9174,-4.9109,-4.9132,-4.9133,-4.9138,-4.9139,-4.905,-4.9181,-4.9411,-4.9432,-4.9146,-4.9143,-4.9141,0,-4.8923,-4.8999,-4.9082,-4.9096,-4.9109,-4.9149,-4.9156,-4.917,-4.9196,-4.9228,-4.9244,-4.9283,-4.9304,-4.9335,-4.931,-4.9256,-4.9408,-4.9327,-4.9401,-4.9401,-4.9432,-4.9429,-4.9665,-4.9454,-4.9453,-4.9453,-4.9452,0,-4.91,-4.9177,-4.9149,-4.92,-4.9285,-4.9253,-4.9338,-4.9338,-4.9351,-4.9401,-4.9354,-4.9401,-4.9368,-4.9413,-4.9395,-4.9474,-4.9485,-4.9478,-4.9472,-4.948,-4.9481,-4.9492,-4.9479,-4.9459,-4.9457,-4.9456,-4.9455,0,-4.9279,-4.9263,-4.935,-4.9356,-4.936,-4.9422,-4.9426,-4.9474,-4.9465,-4.9529,-4.9542,-4.9528,-4.9579,-4.9559,-4.9612,-4.96,-4.9701,-4.9683,-4.9695,-4.9688,-4.9762,-4.9755,-5.001,-5.0041,-4.9813,-4.9816,-4.9817,0,-4.939,-4.9448,-4.9462,-4.9492,-4.9503,-4.9553,-4.958,-4.9552,-4.9582,-4.9608,-4.9652,-4.9699,-4.9734,-4.9818,-4.9812,-4.9853,-4.9833,-4.992,-4.9838,-4.9845,-4.9831,-4.9826,-4.9831,-4.9935,-4.9938,-4.994,-4.9942,0,-4.959,-4.958,-4.9621,-4.966,-4.9694,-4.9724,-4.9749,-4.9777,-4.975,-4.9787,-4.9838,-4.9866,-4.9922,-4.9968,-5.0005,-5.0012,-4.9972,-4.9968,-4.9987,-4.9994,-4.9997,-4.9994,-4.9735,-4.9961,-4.9959,-4.9958,-4.9957,-4.9956,-4.9735,-4.9784,-4.9801,-4.9849,-4.9866,-4.9891,-4.9936,-4.9934,-4.9977,-5.0019,-5.0001,-5.0061,-5.0078,-5.0124,-5.0137,-5.0183,-5.0148,-5.0176,-5.0183,-5.0189,-5.0197,-4.9994,-5.019,-5.0189,-5.0189,-5.0188,-5.0188,0,-4.9929,-4.9938,-4.9983,-5.002,-5.0058,-5.0021,-5.0047,-5.0081,-5.0134,-5.0155,-5.0191,-5.0251,-5.0297,-5.0296,-5.0338,-5.0375,-5.0358,-5.0387,-5.0382,-5.0384,-5.0227,-5.0205,-5.04,-5.04,-5.04,-5.04,-5.04,-5.04,-5.0034,-5.0114,-5.0107,-5.0195,-5.0203,-5.0262,-5.028,-5.0303,-5.0319,-5.0388,-5.0426,-5.0426,-5.0438,-5.0482,-5.0522,-5.0521,-5.0537,-5.0572,-5.0564,-5.0416,-5.0395,-5.0375,-5.0354,-5.0577,-5.0577,-5.0716,-5.0718,-5.0719]},{"header":{"parameterUnit":"m.s-1","parameterCategory":1,"la1":30.2991,"la2":30.254,"lo1":-89.0895,"lo2":-89.0444,"dy":0.0017,"dx":0.0017,"nx":28,"ny":28,"refTime":"2024-05-30T21:00:00:Z","depth":0,"parameterNumber":3,"parameterNumberName":"V-component_of_WINDS"},"data":[0,0,0,0,0,0,0,0,0,0,0,0,0,0,0,0,0,0,0,0,0,0,0,0,0,0,0,0,0,0,0,0,0,0,0,0,0,0,0,0,0,0,0,0,0,0,0,0,0,0,0,0,0,0,0,0,0,0,1.7179,1.7178,0,1.7056,1.7054,1.7053,1.6922,1.692,1.6919,1.6917,1.6786,1.6784,1.6783,0,0,0,0,0,0,0,0,0,0,0,0,0,1.7301,1.7299,1.718,1.7178,1.7176,1.7056,1.7054,1.7053,1.6922,1.692,1.6918,1.6916,1.6787,1.6785,1.6782,0,0,0,0,0,0,0,0,0,0,0,0,0,1.722,1.7299,1.718,1.7097,1.7088,1.7056,1.7054,1.7052,1.6923,1.692,1.6917,1.6915,1.6787,1.6785,1.6782,1.682,0,0,1.6774,1.6773,0,0,0,0,0,0,0,0,1.7224,1.7215,1.7111,1.7103,1.7093,1.7002,1.7049,1.6974,1.6924,1.6986,1.6917,1.6914,1.686,1.6851,1.6834,1.6814,1.6808,1.6774,1.6772,1.6771,1.677,0,0,0,0,0,0,0,1.723,1.722,1.713,1.7109,1.7099,1.7065,1.7051,1.7034,1.6939,1.698,1.697,1.6958,1.6854,1.6837,1.683,1.6806,1.6774,1.6771,1.677,1.6769,1.6813,1.6816,0,0,0,0,0,0,1.7249,1.7225,1.7134,1.7127,1.7153,1.7066,1.7049,1.7034,1.6939,1.6922,1.696,1.6952,1.6842,1.6833,1.6824,1.6863,1.6771,1.6768,1.6767,1.681,1.6813,1.6816,0,0,0,0,0,0,1.7252,1.7242,1.7139,1.7173,1.7158,1.7066,1.705,1.7033,1.7015,1.6924,1.6906,1.696,1.684,1.6828,1.6823,1.6856,1.6767,1.6765,1.6807,1.6811,1.6815,1.694,0,0,0,0,0,0,1.7256,1.7244,1.7258,1.7175,1.7157,1.7141,1.7052,1.7032,1.7011,1.6999,1.6919,1.6903,1.6837,1.6827,1.682,1.6851,1.6763,1.6803,1.6809,1.6814,1.6933,1.6948,1.6962,0,0,0,0,0,1.7261,1.7297,1.7259,1.7249,1.7172,1.7143,1.7132,1.7057,1.7014,1.7027,1.6969,1.6905,1.6855,1.6828,1.6819,1.6849,1.6801,1.6807,1.6813,1.6926,1.6945,1.6961,0,0,0,0,0,0,1.7384,1.7284,1.7241,1.7252,1.7207,1.7121,1.7134,1.7079,1.7044,1.7034,1.6941,1.6924,1.693,1.6889,1.6861,1.6882,1.6819,1.6823,1.6908,1.6925,1.6939,1.6948,1.676,0,0,0,0,0,1.7413,1.7398,1.7312,1.7329,1.7309,1.7227,1.7211,1.7157,1.7106,1.7086,1.7027,1.698,1.6953,1.6937,1.6907,1.6927,1.6907,1.6944,1.6958,1.6971,1.6975,1.6983,1.6998,1.6837,1.6837,1.6837,0,0,1.7471,1.7415,1.7411,1.7353,1.7311,1.7298,1.7211,1.72,1.7189,1.7083,1.7075,1.7031,1.6972,1.698,1.698,1.6946,1.7016,1.6979,1.6989,1.6987,1.6991,1.7006,1.702,1.6841,1.684,1.684,0,0,1.757,1.7527,1.7537,1.7499,1.7439,1.7384,1.7387,1.7309,1.7277,1.7267,1.7189,1.7174,1.7129,1.709,1.7065,1.7154,1.7093,1.7147,1.7221,1.723,1.7243,1.7253,1.7284,1.7297,1.7152,1.7152,1.7152,0,1.765,1.7627,1.7549,1.7543,1.752,1.7427,1.7437,1.7402,1.7335,1.7321,1.7285,1.7228,1.7182,1.7179,1.7201,1.7184,1.7184,1.7154,1.7247,1.7257,1.7266,1.7295,1.7307,1.7159,1.7158,1.7157,1.7157,0,1.7728,1.7714,1.7729,1.7669,1.7648,1.765,1.7571,1.7559,1.7508,1.7457,1.7449,1.7391,1.7348,1.7344,1.7293,1.7335,1.7315,1.7265,1.7199,1.729,1.7315,1.7325,1.7169,1.7166,1.7164,1.7162,0,0,1.7898,1.7797,1.7804,1.7776,1.7705,1.7691,1.769,1.765,1.7641,1.7599,1.7595,1.7561,1.7514,1.7486,1.743,1.7438,1.7512,1.7386,1.7383,1.7411,1.7554,1.7592,1.7606,1.7473,1.7475,1.7476,1.7559,0,1.7984,1.7976,1.7907,1.7919,1.7905,1.7818,1.7816,1.7772,1.7726,1.7706,1.7654,1.7631,1.7572,1.7554,1.7558,1.7502,1.7539,1.7495,1.7467,1.7467,1.7483,1.7619,1.7658,1.7739,1.7568,1.757,1.7571,0,1.8082,1.8048,1.806,1.7989,1.7981,1.7981,1.7939,1.7923,1.7871,1.7836,1.7807,1.7745,1.7738,1.7678,1.7667,1.7639,1.7623,1.7594,1.7596,1.7588,1.7523,1.7615,1.7763,1.7775,1.7586,1.7585,1.7584,0,1.8205,1.8162,1.8163,1.8142,1.806,1.8063,1.8028,1.7974,1.7955,1.7919,1.7906,1.7869,1.7849,1.7822,1.7752,1.7715,1.7749,1.7683,1.7719,1.7721,1.7728,1.7728,1.7875,1.7721,1.7721,1.7721,1.772,0,1.8307,1.8317,1.8217,1.8218,1.8227,1.8148,1.8158,1.8116,1.8069,1.8059,1.7982,1.7974,1.7883,1.7865,1.7811,1.781,1.7801,1.7772,1.7757,1.7778,1.7782,1.7765,1.7757,1.7724,1.7723,1.7722,1.7722,0,1.8444,1.8378,1.8373,1.8298,1.8279,1.8289,1.8223,1.8221,1.8171,1.816,1.8152,1.8073,1.8049,1.7977,1.7933,1.7896,1.7911,1.7884,1.7929,1.7919,1.7959,1.7956,1.8099,1.8114,1.7952,1.7954,1.7955,0,1.8512,1.8518,1.8444,1.8433,1.8403,1.8386,1.8367,1.829,1.8274,1.8217,1.8221,1.8191,1.8162,1.8127,1.8065,1.8031,1.8002,1.8055,1.7996,1.8017,1.8001,1.8002,1.8002,1.8067,1.8069,1.807,1.8072,0,1.8641,1.8609,1.8585,1.8551,1.8531,1.85,1.8464,1.846,1.8373,1.8359,1.8334,1.8312,1.8269,1.8239,1.8197,1.816,1.8102,1.8092,1.8098,1.8118,1.8144,1.813,1.7962,1.8088,1.8086,1.8085,1.8084,1.8084,1.8744,1.8746,1.8695,1.8672,1.8638,1.8607,1.8601,1.8552,1.853,1.849,1.8446,1.8426,1.8376,1.8313,1.8281,1.8264,1.8233,1.8242,1.8244,1.8247,1.8257,1.8149,1.8256,1.8256,1.8255,1.8255,1.8254,0,1.8868,1.8832,1.8812,1.8766,1.8748,1.8697,1.8656,1.8644,1.8628,1.8586,1.8561,1.8533,1.8505,1.8442,1.8408,1.8406,1.8379,1.84,1.8398,1.8391,1.8287,1.8285,1.8423,1.8423,1.8423,1.8423,1.8423,1.8423,1.893,1.8931,1.8893,1.8877,1.8839,1.8821,1.8802,1.8773,1.874,1.8712,1.8689,1.865,1.86,1.8562,1.8534,1.8516,1.8507,1.8537,1.8511,1.8414,1.8398,1.8383,1.838,1.8536,1.8536,1.8615,1.8616,1.8617]}]]